[[{"header":{"parameterUnit":"m.s-1","parameterCategory":1,"la1":30.2991,"la2":30.254,"lo1":-89.0895,"lo2":-89.0444,"dy":0.0017,"dx":0.0017,"nx":28,"ny":28,"refTime":"2023-09-14T03:00:00:Z","depth":0,"parameterNumber":2,"parameterNumberName":"U-component_of_WINDS"},"data":[0,0,0,0,0,0,0,0,0,0,0,0,0,0,0,0,0,0,0,0,0,0,0,0,0,0,0,0,0,0,0,0,0,0,0,0,0,0,0,0,0,0,0,0,0,0,0,0,0,0,0,0,0,0,0,0,0,0,0.0365,0.0365,0,0.0406,0.0407,0.0407,0.0452,0.0453,0.0454,0.0454,0.0497,0.0498,0.0498,0,0,0,0,0,0,0,0,0,0,0,0,0,0.0325,0.0326,0.0365,0.0365,0.0366,0.0406,0.0407,0.0407,0.0452,0.0453,0.0454,0.0455,0.0497,0.0497,0.0498,0,0,0,0,0,0,0,0,0,0,0,0,0,0.0352,0.0326,0.0365,0.0393,0.0396,0.0406,0.0407,0.0407,0.0452,0.0453,0.0454,0.0455,0.0497,0.0497,0.0498,0.0483,0,0,0.0501,0.0501,0,0,0,0,0,0,0,0,0.035,0.0353,0.0388,0.0391,0.0395,0.0425,0.0408,0.0433,0.0452,0.0431,0.0454,0.0456,0.0472,0.0475,0.0481,0.0485,0.0487,0.0501,0.0501,0.0501,0.0502,0,0,0,0,0,0,0,0.0349,0.0352,0.0381,0.0389,0.0393,0.0404,0.0409,0.0413,0.0446,0.0433,0.0436,0.044,0.0474,0.048,0.0482,0.0488,0.0501,0.0501,0.0502,0.0502,0.0483,0.0482,0,0,0,0,0,0,0.0342,0.035,0.038,0.0382,0.0374,0.0404,0.0409,0.0414,0.0446,0.0451,0.044,0.0442,0.0478,0.0481,0.0484,0.0469,0.0501,0.0502,0.0503,0.0484,0.0482,0.0481,0,0,0,0,0,0,0.0341,0.0345,0.0378,0.0367,0.0372,0.0404,0.0409,0.0415,0.042,0.0451,0.0457,0.0439,0.0479,0.0483,0.0483,0.0471,0.0503,0.0503,0.0485,0.0483,0.0482,0.0438,0,0,0,0,0,0,0.034,0.0344,0.0338,0.0367,0.0373,0.0376,0.0408,0.0415,0.0422,0.0426,0.0452,0.0458,0.048,0.0482,0.0484,0.0472,0.0504,0.0486,0.0484,0.0482,0.044,0.0435,0.043,0,0,0,0,0,0.0338,0.0324,0.0338,0.0341,0.0366,0.0376,0.0379,0.0405,0.042,0.0415,0.0435,0.0457,0.0472,0.0481,0.0484,0.0473,0.0487,0.0485,0.0483,0.0443,0.0436,0.043,0,0,0,0,0,0,0.0293,0.0328,0.0344,0.0339,0.0354,0.0383,0.0377,0.0397,0.0408,0.0412,0.0444,0.0449,0.0446,0.046,0.047,0.046,0.0483,0.0481,0.0451,0.0445,0.044,0.0437,0.0505,0,0,0,0,0,0.0283,0.0287,0.0318,0.031,0.0317,0.0346,0.0351,0.037,0.0387,0.0393,0.0413,0.0429,0.0437,0.0442,0.0452,0.0443,0.0449,0.0436,0.0431,0.0427,0.0425,0.0421,0.0416,0.0474,0.0474,0.0474,0,0,0.0261,0.0281,0.0282,0.0302,0.0316,0.032,0.0351,0.0354,0.0357,0.0394,0.0395,0.041,0.043,0.0426,0.0425,0.0437,0.041,0.0424,0.042,0.0421,0.0418,0.0413,0.0408,0.0473,0.0473,0.0473,0,0,0.0223,0.0239,0.0234,0.0248,0.0269,0.0288,0.0287,0.0314,0.0325,0.0327,0.0355,0.0359,0.0373,0.0386,0.0395,0.0362,0.0383,0.0365,0.0338,0.0334,0.0329,0.0325,0.0314,0.0309,0.0363,0.0363,0.0363,0,0.0194,0.0201,0.0229,0.023,0.0238,0.0272,0.0268,0.028,0.0302,0.0307,0.032,0.0338,0.0354,0.0354,0.0346,0.0352,0.0351,0.0361,0.0328,0.0324,0.0321,0.031,0.0306,0.036,0.0361,0.0361,0.0361,0,0.0163,0.0167,0.0161,0.0182,0.019,0.0188,0.0217,0.0221,0.0239,0.0257,0.0259,0.0279,0.0293,0.0295,0.0313,0.0297,0.0304,0.0322,0.0345,0.0312,0.0303,0.0299,0.0357,0.0358,0.0358,0.0359,0,0,0.0097,0.0135,0.0132,0.0142,0.0168,0.0172,0.0172,0.0186,0.0189,0.0204,0.0205,0.0216,0.0233,0.0242,0.0262,0.0259,0.0232,0.0278,0.0279,0.0268,0.0216,0.0201,0.0196,0.0246,0.0246,0.0245,0.0214,0,0.0064,0.0066,0.0092,0.0086,0.0091,0.0123,0.0124,0.014,0.0157,0.0163,0.0182,0.0189,0.0212,0.0218,0.0216,0.0236,0.0222,0.0238,0.0247,0.0247,0.024,0.0191,0.0176,0.0146,0.021,0.021,0.0209,0,0.0025,0.0037,0.0032,0.0059,0.0062,0.0061,0.0076,0.0082,0.0101,0.0114,0.0124,0.0147,0.0149,0.0171,0.0175,0.0185,0.0191,0.0201,0.0201,0.0202,0.0226,0.0191,0.0137,0.0132,0.0204,0.0204,0.0205,0,-0.0023,-0.0007,-0.0008,-0.0,0.0031,0.0029,0.0042,0.0062,0.0069,0.0082,0.0087,0.01,0.0107,0.0117,0.0143,0.0157,0.0143,0.0168,0.0154,0.0153,0.0149,0.0149,0.0094,0.0153,0.0153,0.0153,0.0153,0,-0.0063,-0.0068,-0.0029,-0.003,-0.0034,-0.0003,-0.0008,0.0008,0.0026,0.0029,0.0058,0.006,0.0094,0.0101,0.0121,0.0121,0.0124,0.0134,0.0139,0.0131,0.013,0.0135,0.0137,0.0152,0.0152,0.0153,0.0153,0,-0.0118,-0.0092,-0.0091,-0.0062,-0.0054,-0.0059,-0.0033,-0.0033,-0.0014,-0.001,-0.0007,0.0023,0.0032,0.0058,0.0074,0.0088,0.0081,0.0092,0.0075,0.0078,0.0063,0.0064,0.0009,0.0003,0.0066,0.0065,0.0065,0,-0.0146,-0.0148,-0.0119,-0.0115,-0.0103,-0.0097,-0.009,-0.006,-0.0054,-0.0032,-0.0034,-0.0023,-0.0012,0.0001,0.0024,0.0036,0.0047,0.0027,0.0049,0.0041,0.0046,0.0046,0.0046,0.0022,0.0021,0.0021,0.002,0,-0.0198,-0.0185,-0.0176,-0.0162,-0.0154,-0.0142,-0.0128,-0.0126,-0.0093,-0.0087,-0.0078,-0.007,-0.0053,-0.0043,-0.0027,-0.0013,0.0009,0.0013,0.001,0.0002,-0.0008,-0.0003,0.0061,0.0014,0.0015,0.0015,0.0015,0.0016,-0.024,-0.024,-0.022,-0.0211,-0.0197,-0.0185,-0.0183,-0.0163,-0.0155,-0.0139,-0.0122,-0.0115,-0.0095,-0.0071,-0.0059,-0.0053,-0.0041,-0.0045,-0.0046,-0.0047,-0.0051,-0.0009,-0.005,-0.0049,-0.0049,-0.0049,-0.0049,0,-0.0291,-0.0276,-0.0267,-0.0249,-0.0242,-0.0221,-0.0205,-0.02,-0.0194,-0.0177,-0.0168,-0.0157,-0.0146,-0.0121,-0.0108,-0.0108,-0.0097,-0.0105,-0.0105,-0.0103,-0.0062,-0.0062,-0.0114,-0.0114,-0.0114,-0.0114,-0.0114,-0.0114,-0.0316,-0.0316,-0.0301,-0.0294,-0.0279,-0.0271,-0.0264,-0.0252,-0.0239,-0.0228,-0.0219,-0.0203,-0.0183,-0.0169,-0.0158,-0.0151,-0.0147,-0.0159,-0.0149,-0.0112,-0.0106,-0.01,-0.0099,-0.0158,-0.0158,-0.019,-0.019,-0.019]},{"header":{"parameterUnit":"m.s-1","parameterCategory":1,"la1":30.2991,"la2":30.254,"lo1":-89.0895,"lo2":-89.0444,"dy":0.0017,"dx":0.0017,"nx":28,"ny":28,"refTime":"2023-09-14T03:00:00:Z","depth":0,"parameterNumber":3,"parameterNumberName":"V-component_of_WINDS"},"data":[0,0,0,0,0,0,0,0,0,0,0,0,0,0,0,0,0,0,0,0,0,0,0,0,0,0,0,0,0,0,0,0,0,0,0,0,0,0,0,0,0,0,0,0,0,0,0,0,0,0,0,0,0,0,0,0,0,0,-0.4478,-0.4477,0,-0.4451,-0.4451,-0.4451,-0.4425,-0.4424,-0.4424,-0.4424,-0.4396,-0.4395,-0.4395,0,0,0,0,0,0,0,0,0,0,0,0,0,-0.4506,-0.4506,-0.4478,-0.4477,-0.4477,-0.4451,-0.4451,-0.445,-0.4425,-0.4424,-0.4424,-0.4424,-0.4396,-0.4395,-0.4395,0,0,0,0,0,0,0,0,0,0,0,0,0,-0.4488,-0.4506,-0.4478,-0.4461,-0.4459,-0.4451,-0.4451,-0.445,-0.4425,-0.4424,-0.4424,-0.4423,-0.4396,-0.4396,-0.4395,-0.4401,0,0,-0.4393,-0.4393,0,0,0,0,0,0,0,0,-0.4489,-0.4487,-0.4464,-0.4462,-0.446,-0.4441,-0.4451,-0.4434,-0.4425,-0.4438,-0.4424,-0.4423,-0.4411,-0.4409,-0.4405,-0.44,-0.4398,-0.4393,-0.4392,-0.4392,-0.4392,0,0,0,0,0,0,0,-0.449,-0.4488,-0.4467,-0.4464,-0.4461,-0.4455,-0.4452,-0.4447,-0.4428,-0.4437,-0.4435,-0.4432,-0.441,-0.4406,-0.4404,-0.4398,-0.4393,-0.4392,-0.4392,-0.4392,-0.4397,-0.4398,0,0,0,0,0,0,-0.4494,-0.4489,-0.4468,-0.4466,-0.4474,-0.4455,-0.4451,-0.4447,-0.4428,-0.4424,-0.4433,-0.4431,-0.4407,-0.4405,-0.4403,-0.441,-0.4392,-0.4392,-0.4391,-0.4397,-0.4397,-0.4398,0,0,0,0,0,0,-0.4495,-0.4493,-0.4469,-0.4477,-0.4474,-0.4455,-0.4451,-0.4447,-0.4443,-0.4424,-0.4421,-0.4432,-0.4407,-0.4404,-0.4402,-0.4409,-0.4391,-0.4391,-0.4396,-0.4397,-0.4398,-0.4424,0,0,0,0,0,0,-0.4496,-0.4493,-0.4495,-0.4478,-0.4474,-0.4468,-0.4451,-0.4447,-0.4442,-0.444,-0.4423,-0.442,-0.4406,-0.4403,-0.4401,-0.4408,-0.439,-0.4395,-0.4396,-0.4397,-0.4422,-0.4425,-0.4428,0,0,0,0,0,-0.4497,-0.4503,-0.4495,-0.4493,-0.4476,-0.4469,-0.4466,-0.4451,-0.4443,-0.4445,-0.4433,-0.442,-0.4408,-0.4403,-0.4401,-0.4407,-0.4395,-0.4396,-0.4397,-0.4421,-0.4425,-0.4428,0,0,0,0,0,0,-0.4521,-0.45,-0.4492,-0.4492,-0.4483,-0.4464,-0.4467,-0.4455,-0.4448,-0.4446,-0.4427,-0.4423,-0.4424,-0.4415,-0.441,-0.4413,-0.44,-0.4401,-0.4418,-0.4422,-0.4425,-0.4427,-0.439,0,0,0,0,0,-0.4527,-0.4523,-0.4505,-0.4507,-0.4503,-0.4486,-0.4482,-0.4471,-0.446,-0.4456,-0.4444,-0.4434,-0.4428,-0.4424,-0.4417,-0.442,-0.4417,-0.4424,-0.4426,-0.4429,-0.443,-0.4432,-0.4435,-0.4402,-0.4402,-0.4402,0,0,-0.4538,-0.4526,-0.4525,-0.4512,-0.4503,-0.45,-0.4482,-0.4479,-0.4477,-0.4455,-0.4453,-0.4444,-0.4431,-0.4432,-0.4432,-0.4425,-0.4439,-0.443,-0.4433,-0.4432,-0.4434,-0.4437,-0.444,-0.4403,-0.4403,-0.4402,0,0,-0.4557,-0.4547,-0.4549,-0.4541,-0.4528,-0.4516,-0.4517,-0.4501,-0.4494,-0.4491,-0.4475,-0.4472,-0.4462,-0.4454,-0.4449,-0.4466,-0.4454,-0.4464,-0.4479,-0.4482,-0.4484,-0.4487,-0.4494,-0.4496,-0.4465,-0.4465,-0.4465,0,-0.4573,-0.4567,-0.4551,-0.4549,-0.4544,-0.4525,-0.4527,-0.4519,-0.4505,-0.4502,-0.4495,-0.4482,-0.4472,-0.4472,-0.4476,-0.4472,-0.4472,-0.4466,-0.4485,-0.4487,-0.4489,-0.4496,-0.4499,-0.4466,-0.4466,-0.4466,-0.4466,0,-0.4588,-0.4584,-0.4587,-0.4574,-0.457,-0.4569,-0.4553,-0.455,-0.454,-0.453,-0.4528,-0.4515,-0.4506,-0.4505,-0.4494,-0.4503,-0.4499,-0.4489,-0.4476,-0.4494,-0.45,-0.4503,-0.4468,-0.4468,-0.4467,-0.4467,0,0,-0.4622,-0.46,-0.4602,-0.4596,-0.4581,-0.4578,-0.4577,-0.4569,-0.4568,-0.4558,-0.4558,-0.455,-0.4541,-0.4535,-0.4523,-0.4525,-0.4541,-0.4514,-0.4513,-0.452,-0.4551,-0.456,-0.4563,-0.4532,-0.4533,-0.4533,-0.4552,0,-0.4639,-0.4637,-0.4623,-0.4625,-0.4622,-0.4604,-0.4604,-0.4594,-0.4585,-0.4581,-0.457,-0.4565,-0.4552,-0.4549,-0.455,-0.4539,-0.4547,-0.4537,-0.4532,-0.4533,-0.4537,-0.4566,-0.4575,-0.4594,-0.4554,-0.4555,-0.4555,0,-0.4659,-0.4652,-0.4655,-0.464,-0.4638,-0.4638,-0.463,-0.4627,-0.4616,-0.4609,-0.4603,-0.459,-0.4588,-0.4576,-0.4574,-0.4568,-0.4565,-0.4559,-0.4559,-0.4559,-0.4546,-0.4568,-0.4599,-0.4603,-0.4558,-0.4558,-0.4558,0,-0.4686,-0.4676,-0.4677,-0.4672,-0.4655,-0.4656,-0.4649,-0.4638,-0.4634,-0.4627,-0.4624,-0.4617,-0.4613,-0.4607,-0.4593,-0.4585,-0.4593,-0.4579,-0.4588,-0.4589,-0.4591,-0.4592,-0.4624,-0.4588,-0.4588,-0.4588,-0.4588,0,-0.4707,-0.471,-0.4689,-0.4689,-0.4691,-0.4675,-0.4677,-0.4668,-0.4659,-0.4658,-0.4641,-0.464,-0.462,-0.4617,-0.4606,-0.4607,-0.4605,-0.46,-0.4597,-0.4602,-0.4603,-0.4601,-0.4599,-0.4588,-0.4588,-0.4588,-0.4588,0,-0.4737,-0.4723,-0.4723,-0.4707,-0.4703,-0.4706,-0.4692,-0.4692,-0.4681,-0.468,-0.4679,-0.4662,-0.4658,-0.4643,-0.4634,-0.4627,-0.4632,-0.4625,-0.4636,-0.4634,-0.4644,-0.4644,-0.4678,-0.4682,-0.4642,-0.4642,-0.4642,0,-0.4753,-0.4754,-0.4739,-0.4737,-0.4731,-0.4728,-0.4724,-0.4708,-0.4705,-0.4693,-0.4695,-0.4689,-0.4684,-0.4678,-0.4665,-0.4659,-0.4653,-0.4665,-0.4652,-0.4657,-0.4655,-0.4655,-0.4656,-0.4668,-0.4669,-0.4669,-0.467,0,-0.4782,-0.4775,-0.4771,-0.4764,-0.476,-0.4754,-0.4747,-0.4747,-0.4728,-0.4726,-0.4721,-0.4717,-0.4709,-0.4704,-0.4696,-0.4689,-0.4677,-0.4674,-0.4676,-0.4682,-0.4688,-0.4686,-0.4645,-0.4673,-0.4673,-0.4673,-0.4672,-0.4672,-0.4806,-0.4807,-0.4797,-0.4793,-0.4786,-0.478,-0.4779,-0.4769,-0.4765,-0.4758,-0.4748,-0.4745,-0.4735,-0.4723,-0.4717,-0.4714,-0.4707,-0.471,-0.4711,-0.4712,-0.4715,-0.4688,-0.4713,-0.4712,-0.4712,-0.4712,-0.4712,0,-0.4835,-0.4828,-0.4824,-0.4816,-0.4813,-0.4801,-0.4793,-0.4791,-0.4789,-0.4781,-0.4776,-0.4772,-0.4767,-0.4754,-0.4748,-0.4749,-0.4743,-0.4748,-0.4748,-0.4747,-0.4721,-0.472,-0.4753,-0.4753,-0.4753,-0.4753,-0.4753,-0.4753,-0.4851,-0.4852,-0.4844,-0.4843,-0.4835,-0.4833,-0.4829,-0.4824,-0.4817,-0.4813,-0.4809,-0.4801,-0.4791,-0.4784,-0.478,-0.4776,-0.4775,-0.4782,-0.4777,-0.4753,-0.4749,-0.4745,-0.4745,-0.4782,-0.4782,-0.4804,-0.4804,-0.4804]}]]